Flag for U.S.A. Weather past 2 weeks in Salinas, California, U.S.A.

Now
54 °F

Fog.


Feels Like: 54 °F
Forecast: 49 / 70 °F
Wind: No wind

Location: Salinas Municipal Airport


UV Index: 5 (Moderate)

Visibility: 5 mi


Pressure: 29.95 "Hg

Humidity: 86%

Dew point: 50 °F

Location of SalinasLocation

Historic Weather in Salinas

°F

Salinas temperature yesterday

Maximum temperature yesterday: 63 °F (at 11:53 AM)
Minimum temperature yesterday: 53 °F (at 3:53 AM)
Average temperature yesterday: 56 °F

Past Weeks' High & Low Weather Summary

 TemperatureHumidityPressure
High82 °F (Apr 7, 1:53 PM)100% (Apr 9, 3:03 AM)30.25 "Hg (Apr 9, 3:03 AM)
Low43 °F (Apr 3, 4:53 AM)33% (Apr 7, 1:53 PM)29.89 "Hg (Apr 1, 8:02 PM)
Average56 °F74%30.06 "Hg
* Reported Apr 1 7:53 AM — Apr 16 7:53 AM, Salinas, Weather by CustomWeather, © 2014

Note: Actual official high and low records may vary slightly from our data, if they occured in-between our weather recording intervals... More about our weather records

Advertising

Historic Weather Conditions — Data for Previous 24 hours

 ConditionsComfort  
Time TempWeatherWind HumidityBarometerVisibility
7:53 AM
Apr 16
53 °FFog.5 mph86%29.95 "Hg5 mi
7:01 AM52 °FFog.3 mph88%29.92 "Hg6 mi
5:53 AM53 °FPassing clouds.7 mph83%29.94 "Hg7 mi
4:53 AM54 °FOvercast.5 mph80%29.94 "Hg7 mi
3:53 AM53 °FOvercast.8 mph83%29.96 "Hg7 mi
3:02 AM54 °FFog.3 mph82%29.94 "Hg6 mi
2:53 AM53 °FFog.3 mph86%29.96 "Hg6 mi
1:53 AM53 °FClear.5 mph80%29.96 "Hg7 mi
12:53 AM52 °FClear.3 mph83%29.97 "Hg7 mi
11:53 PM
Apr 15
53 °FClear.6 mph80%29.97 "Hg7 mi
10:53 PM54 °FPassing clouds.8 mph77%29.97 "Hg7 mi
9:53 PM54 °FOvercast.8 mph80%29.98 "Hg8 mi
8:53 PM55 °FOvercast.8 mph77%29.98 "Hg8 mi
7:53 PM56 °FPassing clouds.10 mph75%29.96 "Hg7 mi
6:53 PM58 °FSunny.12 mph72%29.97 "Hg7 mi
5:53 PM59 °FSunny.12 mph69%29.97 "Hg8 mi
3:53 PM63 °FSunny.13 mph60%29.99 "Hg9 mi
2:53 PM63 °FSunny.10 mph60%30.01 "Hg9 mi
1:53 PM62 °FSunny.14 mph65%30.02 "Hg9 mi
12:53 PM63 °FSunny.14 mph65%30.02 "Hg9 mi
11:53 AM63 °FSunny.9 mph65%30.04 "Hg8 mi
11:02 AM59 °FPartly sunny.No wind77%30.04 "Hg7 mi
9:53 AM55 °FFog.No wind87%30.06 "Hg6 mi
Weather by CustomWeather, © 2014

See weather overview